Location: La Tine
(46.4708°N, 7.0525°E)
Time: 01:13:23
(UTC+00:00)

Meteor 1-24 Rocket - Pass Details

Date: 19 January 2021
Orbit: 791 x 926 km, 81.3° (Epoch: 03 March)

Event Time Altitude Azimuth Distance (km) Brightness Sun altitude
Exits shadow 03:01:27 18° 88° (E) 1,923 6.0 -42.0°
Drops below altitude 10° 03:03:52 10° 112° (ESE) 2,450 6.6 -41.6°
Sets 03:06:57 0° 129° (SE) 3,406 7.2 -41.1°
